Last updated on Dec. 7, 2019, 12:02 a.m. UTC
1 44188U 19022A 19339.85887095 .00073558 11105-4 10000-3 0 9998 2 44188 51.6804 245.9025 0122888 209.1601 266.9543 15.93074496 35771
Satellite is not in orbit.